Temperature
13 13 13 14 14 14 14 14 14 14 14 15 15 15 15 15 16 16 16 16 16 16 16 16 16 16 16 16 16 16 16 15 15 15 15 15 15 15
13 13 13 13 13 13 14 14 14 14 14 14 15 15 15 15 15 15 15 15 15 15 15 15 15 15 15 15 15 15 15 15 15 15 15 15 15 15
13 13 13 13 13 13 13 14 14 14 14 14 14 14 15 15 15 15 15 15 15 15 15 15 15 15 15 15 15 15 15 15 15 15 15 15 14 14
13 13 13 13 13 13 13 13 13 14 14 14 14 14 14 14 14 14 14 15 15 15 15 15 15 15 15 15 15 15 15 15 15 14 14 14 14 14
13 13 13 13 13 13 13 13 13 13 13 13 14 14 14 14 14 14 14 14 14 14 14 14 14 14 14 14 14 14 14 14 14 14 14 14 14 14
12 13 13 13 13 13 13 13 13 13 13 13 13 13 13 13 13 13 14 14 14 14 14 14 14 14 14 14 14 14 14 14 14 14 14 14 14 13
13 12 12 12 13 13 13 13 13 13 13 13 13 13 13 13 13 13 13 13 13 13 13 14 14 13 13 14 14 14 14 13 13 13 13 13 13 13
12 12 12 12 12 12 12 12 13 13 13 13 13 13 13 13 13 13 13 13 13 13 13 13 13 13 13 13 13 13 13 13 13 13 13 13 13 13
12 12 12 12 12 12 12 12 12 12 12 13 13 13 13 13 13 13 13 13 13 13 13 13 13 13 13 13 13 13 13 13 13 13 13 13 12 12
12 12 12 12 12 12 12 12 12 12 12 12 13 13 13 13 13 13 13 13 13 13 12 12 12 12 12 12 12 13 13 12 12 12 12 12 12 12
12 12 12 12 12 12 12 12 12 12 12 12 12 12 12 12 12 12 12 12 12 12 12 12 12 12 12 12 12 12 12 12 12 12 12 12 12 11
12 12 12 12 12 12 12 12 12 12 12 12 12 12 12 12 12 12 12 12 12 12 12 12 12 12 12 12 12 12 11 11 11 11 11 11 11 11
12 12 12 12 12 12 12 12 12 12 12 12 12 12 12 12 12 12 12 12 12 12 12 12 12 12 11 11 11 11 11 11 11 11 11 11 11 11
12 12 12 12 12 12 12 12 12 12 12 12 12 12 12 12 12 12 12 12 11 12 12 12 12 12 11 11 11 11 11 11 11 11 11 11 10 10
12 12 12 12 12 12 12 12 12 12 12 12 12 12 12 12 12 12 11 11 11 11 11 11 11 11 11 11 11 11 11 11 11 11 10 10 10 10
12 12 12 12 12 12 12 12 11 11 11 11 11 11 11 11 11 11 11 11 11 11 11 11 11 11 11 11 11 11 11 11 10 10 10 10 10 10
12 12 12 12 12 12 12 11 11 11 11 11 11 11 11 11 11 11 11 11 11 11 11 11 11 10 10 10 10 11 11 10 10 10 10 10 10 10
12 12 12 12 12 12 11 11 11 11 11 11 11 11 11 11 11 11 11 11 11 11 11 10 10 10 10 10 10 10 10 10 10 10 10 9 10 9
12 12 12 12 11 11 11 11 11 11 11 11 11 11 11 11 11 11 11 11 11 11 10 10 10 10 10 10 10 10 10 10 10 9 9 9 9 9
12 12 12 12 11 11 11 11 11 11 11 11 11 11 11 11 11 11 11 11 11 10 10 10 10 10 10 10 10 10 10 10 10 9 9 9 9 9
12 12 12 12 11 11 11 11 11 11 11 11 11 11 11 11 11 11 11 10 10 10 10 10 10 10 10 10 9 10 10 10 10 9 9 9 9 8
11 11 11 11 11 11 11 11 11 11 11 10 10 10 10 10 10 10 10 10 10 10 10 10 10 10 9 9 10 10 10 10 9 9 9 9 9 9
10 10 10 10 10 10 10 10 10 10 10 10 10 10 10 10 10 10 10 10 10 10 10 10 10 10 9 9 9 9 9 9 9 9 9 9 9 8
Wind_Speed
2 2 2 2 2 2 3 3 4 2 2 2 2 2 2 4 7 9 10 13 15 15 15 15 14 15 16 16 16 15 14 13 13 13 12 12 12 12
1 1 1 1 1 2 2 2 3 4 3 2 3 2 3 3 6 8 9 11 13 14 14 15 15 15 15 15 14 14 13 13 13 13 12 12 12 12
1 0 1 1 1 1 1 2 2 3 3 2 1 2 2 3 3 4 6 6 8 12 14 14 15 14 14 14 13 13 13 12 12 12 12 12 12 12
1 1 1 0 1 1 1 2 2 3 3 3 1 1 2 3 4 4 4 5 6 9 12 13 14 14 14 13 13 13 13 13 12 12 12 12 12 12
1 1 1 1 1 1 1 1 2 2 2 3 2 1 1 2 3 2 3 2 4 7 10 11 12 13 13 13 13 13 13 13 13 12 11 11 11 11
1 1 1 2 2 2 1 2 2 2 2 2 2 2 1 1 3 3 2 2 2 3 5 7 9 10 12 12 13 13 13 13 13 12 11 11 11 11
2 2 2 2 3 3 2 2 2 2 2 2 3 2 2 2 3 3 3 2 2 2 3 3 4 5 6 10 12 12 13 13 13 13 12 11 11 11
2 2 2 2 3 3 3 3 4 4 4 3 3 4 4 3 3 3 3 3 3 3 4 3 4 4 5 6 10 12 13 13 14 13 13 12 11 10
1 1 2 2 2 1 3 3 4 5 6 5 5 5 5 5 5 5 5 5 4 4 4 3 4 5 4 7 10 12 12 13 13 13 13 12 12 11
1 1 1 2 2 2 1 1 2 3 4 4 6 6 6 5 6 6 5 3 1 2 3 3 3 3 3 5 10 11 12 12 12 12 12 12 12 11
3 2 1 2 4 2 0 1 2 3 3 5 6 7 7 7 6 4 5 4 3 3 3 3 3 3 2 3 7 11 12 12 12 12 12 12 12 11
3 3 4 3 3 2 1 1 2 3 2 2 2 2 3 4 6 6 6 6 3 3 4 4 3 3 2 2 3 6 8 10 12 12 12 13 13 9
2 3 3 5 5 4 2 2 4 4 2 2 2 2 1 2 3 3 4 5 5 4 5 5 4 4 3 2 2 3 5 5 6 8 12 13 13 11
2 3 4 6 6 6 4 4 4 3 1 1 1 2 2 2 2 2 3 4 4 4 7 6 4 5 4 3 2 2 3 5 5 5 7 9 10 11
3 4 5 6 7 5 5 6 4 1 1 2 2 3 2 2 1 1 1 1 2 3 5 5 4 5 4 4 4 3 3 3 5 5 5 6 5 6
3 5 6 6 5 5 5 4 2 2 2 3 3 2 1 1 2 2 2 2 1 0 1 3 5 6 4 3 4 4 4 4 5 6 5 5 5 8
2 2 2 3 3 3 3 3 3 2 2 2 2 2 2 2 2 2 2 2 2 2 2 1 1 2 3 4 4 4 4 4 4 6 6 5 5 7
2 2 3 3 4 4 4 4 3 3 3 3 3 3 3 4 3 2 2 3 3 3 3 2 2 2 1 1 3 5 5 4 4 5 5 5 5 5
3 4 4 5 5 5 4 4 4 4 3 3 4 4 4 4 4 4 4 3 4 4 4 3 4 4 4 4 3 5 6 5 5 5 5 5 6 6
3 5 6 6 5 5 5 5 5 4 4 4 4 4 5 5 5 5 5 5 5 4 4 4 5 6 6 5 4 3 8 6 6 6 5 3 2 2
4 5 5 6 6 6 6 5 5 5 5 4 4 5 5 5 5 6 6 7 6 5 6 7 7 8 3 3 2 2 3 8 9 6 6 4 3 3
4 5 5 5 5 5 5 4 4 5 5 5 5 5 5 5 6 7 6 6 6 7 7 6 4 4 4 6 6 5 4 3 5 8 9 9 6 7
5 5 5 5 5 5 4 5 5 5 4 5 5 5 5 5 6 6 7 7 6 7 6 5 4 4 5 6 7 6 6 5 4 3 4 8 12 11
Wind_Direction
227 227 224 223 212 203 186 173 168 196 236 232 221 217 198 194 194 193 198 203 204 204 205 205 206 207 207 207 208 208 209 211 212 212 213 213 214 215
231 234 237 231 219 207 193 192 182 181 212 228 220 210 194 200 193 187 194 199 205 205 205 204 204 205 206 207 207 206 206 208 207 207 209 213 213 215
333 277 265 236 211 221 195 181 187 175 205 242 233 198 183 188 177 180 192 195 205 209 207 206 204 204 205 205 205 204 204 204 205 209 212 213 214 213
331 9 302 285 241 223 183 191 198 190 186 218 231 208 208 190 184 186 187 193 196 208 207 205 205 204 204 205 205 204 203 205 207 211 212 213 215 217
280 253 264 238 242 242 217 215 217 212 186 188 215 216 217 180 174 188 189 188 195 203 202 202 203 205 203 203 203 201 201 203 204 205 205 207 211 213
303 261 255 233 229 217 221 222 208 198 192 187 203 207 214 185 169 185 197 201 202 189 186 189 197 202 203 200 200 200 201 202 203 203 203 203 206 207
325 305 278 268 245 219 217 208 193 197 196 201 208 209 209 193 199 192 197 197 212 193 178 188 184 194 202 204 202 203 202 203 202 201 201 201 199 195
312 315 306 294 276 267 255 229 211 207 208 205 213 213 221 215 204 198 189 194 218 194 179 200 185 201 208 204 204 202 203 202 199 197 194 192 190 189
291 305 317 323 317 293 274 257 249 240 222 207 210 217 214 209 199 205 206 201 213 190 174 203 193 207 210 210 203 198 198 198 196 194 191 189 186 182
341 303 298 317 315 300 280 284 271 259 242 227 222 226 222 214 208 211 206 195 191 203 182 199 193 206 204 202 200 196 195 194 192 191 190 188 185 183
348 341 319 309 324 340 276 266 301 300 275 242 231 234 231 224 204 182 183 186 211 212 191 183 183 184 199 212 203 198 196 194 192 193 193 189 187 183
338 340 332 325 325 347 318 252 271 284 299 310 275 264 241 223 206 198 196 196 188 199 194 177 171 163 193 217 199 196 200 201 198 197 193 190 184 177
314 321 318 328 330 325 312 263 267 278 270 258 271 272 266 235 220 211 201 197 193 203 186 167 167 167 175 181 201 198 194 196 198 203 197 191 187 182
272 288 300 315 321 321 312 293 296 306 266 250 257 255 244 237 230 222 209 206 202 196 182 171 170 174 169 174 202 193 190 192 190 193 197 193 193 192
260 278 297 312 321 320 309 306 311 302 253 247 248 249 240 222 201 198 188 170 155 170 176 185 170 169 172 182 182 180 185 197 189 185 187 191 192 186
281 297 309 317 313 299 304 308 294 261 240 242 250 257 253 216 208 197 190 176 160 192 187 189 180 172 182 183 180 186 182 184 187 190 185 190 196 198
256 310 324 326 323 317 312 301 288 277 258 247 239 243 242 234 230 204 184 174 185 197 193 168 159 165 177 175 184 195 188 191 187 179 179 195 208 206
191 258 275 278 280 285 291 296 288 265 250 243 240 235 231 227 228 214 192 190 200 207 201 185 156 128 86 300 203 190 190 194 185 177 174 190 214 214
215 253 261 265 268 270 269 268 272 269 252 240 240 238 229 223 219 218 211 207 212 214 211 191 180 177 197 230 244 198 188 186 175 181 189 192 208 215
244 259 266 266 263 262 263 263 265 267 256 246 244 243 229 220 219 219 215 214 216 216 214 205 202 202 206 213 213 216 197 186 184 193 193 189 208 224
274 271 272 272 268 262 258 258 258 261 259 247 243 239 230 221 225 225 220 219 217 218 221 224 223 207 185 137 179 235 225 207 198 188 178 172 184 188
305 299 298 295 293 287 277 267 263 262 261 257 252 246 236 226 231 229 223 220 221 221 226 229 203 173 179 200 217 222 222 213 214 212 201 188 178 193
325 318 311 309 305 302 294 284 274 272 265 260 259 254 243 239 236 233 229 225 222 222 221 219 201 193 204 208 215 216 212 204 192 192 227 230 224 225
Height
1478 1480 1481 1482 1484 1485 1487 1488 1490 1490 1491 1492 1494 1495 1497 1499 1501 1503 1505 1507 1510 1511 1513 1515 1518 1520 1522 1523 1525 1527 1528 1529 1530 1531 1532 1533 1534 1535
1477 1478 1479 1480 1481 1483 1484 1485 1487 1488 1488 1489 1491 1492 1494 1496 1498 1500 1502 1504 1506 1508 1510 1512 1514 1516 1518 1520 1521 1523 1524 1525 1527 1528 1529 1530 1531 1531
1475 1476 1477 1478 1479 1480 1481 1482 1484 1485 1485 1487 1488 1489 1491 1493 1494 1496 1498 1500 1502 1504 1506 1508 1510 1512 1514 1515 1517 1518 1520 1521 1523 1524 1525 1526 1527 1528
1474 1474 1475 1476 1477 1478 1479 1480 1481 1482 1483 1484 1485 1487 1488 1490 1491 1493 1495 1496 1498 1500 1502 1504 1506 1508 1509 1511 1513 1514 1516 1517 1518 1520 1521 1522 1523 1523
1472 1473 1474 1475 1475 1476 1477 1478 1479 1480 1481 1481 1482 1484 1485 1487 1488 1490 1491 1493 1494 1496 1498 1499 1501 1503 1505 1506 1508 1510 1511 1513 1514 1516 1516 1517 1518 1519
1471 1471 1472 1473 1473 1474 1475 1475 1476 1477 1478 1478 1479 1481 1482 1483 1485 1486 1488 1489 1490 1492 1493 1494 1496 1498 1500 1502 1504 1505 1507 1508 1510 1511 1512 1513 1514 1515
1470 1470 1470 1471 1471 1472 1472 1473 1473 1474 1475 1475 1476 1477 1478 1480 1481 1482 1484 1485 1486 1488 1489 1490 1492 1493 1495 1497 1499 1500 1502 1503 1505 1506 1507 1508 1510 1510
1469 1469 1469 1469 1469 1470 1470 1470 1471 1471 1472 1472 1473 1474 1474 1476 1478 1479 1480 1481 1482 1484 1485 1486 1488 1489 1490 1492 1494 1495 1497 1498 1500 1501 1503 1504 1505 1506
1469 1468 1468 1468 1468 1467 1467 1468 1468 1468 1469 1470 1470 1470 1471 1473 1474 1475 1476 1477 1478 1479 1481 1482 1483 1484 1486 1488 1489 1491 1492 1494 1495 1497 1498 1500 1501 1502
1468 1468 1467 1466 1466 1466 1466 1465 1465 1466 1466 1467 1467 1468 1469 1470 1470 1471 1472 1473 1474 1476 1477 1478 1479 1480 1482 1483 1484 1486 1487 1489 1490 1492 1494 1495 1497 1498
1468 1467 1466 1465 1465 1465 1464 1463 1463 1463 1464 1464 1464 1465 1465 1466 1466 1467 1467 1469 1469 1471 1473 1474 1475 1476 1477 1478 1480 1482 1483 1484 1486 1488 1489 1491 1492 1494
1468 1467 1466 1465 1464 1463 1462 1462 1461 1461 1461 1461 1462 1462 1462 1462 1462 1463 1463 1464 1465 1466 1468 1470 1470 1472 1473 1474 1476 1477 1479 1480 1482 1483 1485 1487 1488 1489
1467 1466 1465 1464 1463 1462 1461 1460 1459 1459 1459 1459 1459 1459 1459 1459 1459 1459 1460 1460 1461 1462 1464 1465 1466 1468 1469 1470 1472 1473 1475 1476 1478 1479 1481 1482 1484 1486
1467 1465 1464 1463 1462 1461 1460 1459 1458 1458 1457 1457 1456 1456 1456 1456 1456 1456 1456 1457 1458 1459 1460 1461 1463 1464 1465 1466 1468 1469 1471 1472 1474 1475 1477 1478 1480 1482
1466 1465 1463 1462 1461 1460 1459 1458 1457 1456 1455 1455 1454 1454 1454 1454 1454 1454 1454 1454 1454 1455 1456 1458 1459 1460 1462 1463 1464 1465 1467 1468 1470 1471 1473 1474 1476 1478
1465 1463 1462 1461 1460 1459 1458 1457 1456 1455 1454 1453 1453 1453 1453 1453 1452 1452 1452 1452 1452 1452 1453 1455 1456 1457 1458 1460 1461 1462 1463 1464 1466 1468 1469 1471 1473 1475
1463 1462 1461 1459 1458 1457 1456 1455 1454 1453 1453 1452 1451 1451 1451 1450 1450 1450 1450 1450 1450 1451 1451 1452 1453 1454 1456 1457 1457 1458 1459 1461 1462 1464 1466 1467 1469 1471
1461 1460 1458 1457 1456 1455 1454 1453 1452 1451 1451 1450 1449 1449 1448 1448 1448 1448 1448 1448 1448 1449 1449 1450 1451 1451 1453 1453 1455 1455 1456 1457 1459 1460 1462 1463 1465 1467
1458 1457 1456 1455 1454 1453 1452 1451 1450 1449 1448 1448 1447 1446 1446 1446 1446 1446 1446 1446 1446 1447 1447 1448 1448 1449 1449 1450 1451 1452 1453 1454 1455 1456 1458 1459 1461 1463
1455 1454 1453 1452 1450 1449 1448 1447 1446 1446 1445 1444 1444 1443 1443 1442 1442 1442 1443 1443 1443 1444 1444 1445 1445 1446 1447 1447 1448 1449 1450 1450 1451 1452 1454 1455 1457 1459
1452 1451 1450 1448 1447 1446 1444 1443 1443 1442 1441 1441 1440 1440 1439 1439 1438 1438 1439 1439 1439 1439 1440 1440 1442 1443 1444 1444 1444 1444 1446 1447 1448 1448 1450 1451 1452 1453
1448 1447 1445 1444 1443 1442 1441 1439 1438 1437 1437 1436 1436 1435 1435 1434 1434 1434 1434 1434 1434 1434 1435 1436 1438 1438 1439 1439 1439 1440 1442 1443 1444 1445 1446 1447 1447 1448
1444 1443 1441 1440 1438 1437 1436 1435 1434 1433 1432 1431 1430 1430 1429 1429 1429 1428 1428 1428 1429 1429 1430 1430 1431 1432 1433 1433 1434 1435 1436 1438 1439 1440 1441 1442 1443 1445